Temp
27 26 26 26 25 25 25 24 24 24 24 24 24 24 24 24 24 23 23 23 22 22 22 22 22 21 21 21 21 21 20 20 20 20 20 20 20 20 21 21 21 21 21 21 21 21 21 20 20 20 20 20 20 20 20 20 20 20 20 20 20 20 20 20 20 20 20 20 20 20 20 20 20 19 19 19 19 18 18 18 18 17 17 18 18
27 26 26 26 25 25 25 25 24 24 24 24 24 24 24 24 23 23 23 23 22 22 22 21 21 21 21 21 21 20 20 20 20 20 20 20 20 21 21 21 21 21 21 21 21 21 21 20 20 20 20 20 20 20 20 20 20 20 20 20 20 20 20 20 19 20 20 20 20 20 20 20 20 19 19 19 19 19 18 18 18 18 18 18 18
28 27 26 26 25 25 25 25 24 24 24 24 23 24 24 23 23 23 23 23 22 22 22 21 21 21 21 20 20 20 20 20 20 20 20 20 20 21 21 21 21 21 21 21 21 21 21 21 20 21 21 21 20 20 20 20 20 20 20 20 20 20 20 20 19 19 20 20 20 20 20 20 20 19 19 19 19 18 18 18 18 18 18 18 18
29 27 26 26 26 25 25 25 24 24 24 24 23 24 24 23 23 23 23 23 23 23 22 21 21 21 20 20 20 20 20 21 21 20 20 20 20 20 21 21 21 21 21 21 21 21 21 21 21 21 21 21 21 20 20 20 20 20 20 20 20 20 20 19 19 19 19 19 20 20 20 20 20 19 19 19 19 18 18 18 18 18 18 18 18
29 28 27 26 26 25 25 25 25 25 25 24 24 24 24 24 23 23 23 23 23 22 22 21 21 21 21 20 20 20 20 21 21 20 20 20 20 20 21 20 21 21 21 21 21 21 21 21 21 21 21 21 21 21 21 21 21 20 20 20 20 20 19 19 19 19 19 19 19 19 19 19 19 19 19 19 19 19 18 18 18 18 18 18 18
29 29 27 27 26 25 25 25 25 25 25 24 24 24 25 24 23 23 23 23 23 22 22 22 21 21 21 21 20 20 21 21 21 20 20 20 20 21 20 20 21 21 21 21 21 21 21 21 21 21 21 21 21 21 21 21 21 20 20 20 20 20 19 19 19 19 19 19 18 19 19 18 19 19 19 19 19 19 19 18 18 19 18 19 19
29 29 28 28 26 26 25 25 25 25 24 24 24 24 25 24 24 23 23 23 23 22 22 22 22 21 21 21 21 21 21 21 21 21 20 20 20 21 20 20 21 21 21 21 21 21 21 21 21 21 21 21 21 21 21 21 21 20 20 20 20 20 19 19 19 19 19 18 18 18 18 18 19 19 18 19 19 18 19 19 19 19 19 18 18
29 28 28 28 27 26 25 25 25 25 24 24 24 24 25 24 23 23 23 23 23 23 22 22 22 21 21 21 21 21 21 21 21 21 21 20 20 20 20 21 21 21 21 21 21 21 22 22 22 22 21 21 21 21 21 20 20 20 20 20 20 19 19 19 19 19 19 19 19 19 18 18 19 19 18 18 19 19 19 19 19 19 19 18 18
28 28 27 27 27 26 25 25 25 25 24 23 23 24 24 23 23 24 24 23 23 22 23 23 22 21 21 20 21 21 21 21 21 21 21 20 20 21 21 20 20 21 21 21 21 22 22 22 22 22 21 21 21 21 21 20 20 20 20 19 19 19 19 19 19 19 19 19 19 19 19 18 19 19 19 19 19 19 19 18 18 18 18 18 18
28 27 27 27 26 26 25 25 25 25 24 23 23 23 22 22 23 24 24 23 23 23 23 23 22 21 20 20 20 20 20 21 21 21 20 20 20 21 20 20 21 21 21 21 22 22 22 22 22 21 21 21 21 20 20 20 20 19 19 19 19 19 19 19 19 19 18 18 19 19 19 19 19 19 19 19 19 19 18 18 18 18 18 18 18
27 27 27 26 26 26 25 25 25 24 24 23 23 22 22 22 24 24 23 23 23 23 23 22 21 19 19 20 20 20 20 21 21 21 21 21 21 20 20 21 21 21 21 22 21 22 22 22 22 21 21 20 20 20 20 20 20 19 19 18 18 18 18 18 18 18 18 18 18 19 19 19 19 19 18 19 18 18 18 17 17 18 18 18 18
27 26 27 26 26 26 25 25 24 24 23 23 23 22 21 22 23 23 22 22 22 22 22 20 19 19 19 20 20 20 20 21 21 21 21 21 21 21 21 21 22 22 21 22 21 22 22 22 21 21 20 20 20 19 19 19 19 19 18 18 18 17 17 17 17 17 17 18 18 18 18 18 18 18 18 18 18 17 17 17 17 17 17 18 17
27 26 26 26 26 25 25 25 24 24 23 23 23 22 21 21 22 21 20 21 21 21 20 19 19 19 19 19 19 20 20 20 20 20 21 21 21 21 21 21 22 22 22 22 22 21 21 21 21 20 20 20 19 19 19 19 19 18 18 17 17 17 17 17 17 16 16 17 17 17 18 18 17 17 17 17 17 17 17 17 17 17 17 17 17
27 27 26 26 25 25 25 25 25 24 23 23 22 21 21 21 21 20 19 19 20 20 19 18 19 19 19 19 19 19 19 19 20 20 21 21 21 21 21 21 21 22 21 21 21 21 21 20 20 20 20 20 19 19 19 19 18 18 18 18 18 18 18 18 17 17 16 16 16 16 17 17 17 17 16 16 16 16 16 16 16 16 16 16 16
27 27 26 26 25 25 24 25 25 24 23 22 22 21 21 20 20 19 19 19 19 19 18 18 19 19 19 19 19 19 19 19 20 20 21 22 22 21 21 20 21 21 21 21 21 20 20 20 19 19 19 19 19 19 18 18 18 18 18 18 18 18 18 18 18 17 16 16 16 16 16 16 16 16 16 15 15 15 15 15 15 15 15 15 15
27 26 26 26 25 25 24 25 24 23 22 22 22 21 21 20 19 19 18 18 18 18 18 19 19 19 19 19 20 20 20 20 20 20 21 22 22 21 20 20 20 21 21 21 20 20 19 19 19 19 19 19 18 18 17 17 17 17 17 18 18 18 18 18 18 17 16 16 15 15 15 15 15 15 15 15 15 14 14 14 14 14 15 16 16
26 26 26 25 25 24 24 25 24 23 22 22 22 21 20 20 19 18 17 17 18 18 18 18 19 19 19 19 20 20 21 21 21 21 21 22 22 21 20 20 20 21 21 20 19 19 18 18 18 18 18 18 18 17 17 16 16 16 17 17 18 18 18 18 17 17 16 16 15 15 15 15 15 15 15 16 15 14 13 13 15 15 16 17 17
26 26 25 25 24 24 24 25 24 23 22 22 22 21 20 20 19 18 17 18 18 18 18 18 19 19 19 20 20 21 21 21 21 21 21 21 22 21 20 20 21 20 20 19 18 18 18 18 18 17 17 18 17 17 16 16 16 16 17 17 17 18 18 18 18 17 16 16 15 15 15 15 15 15 15 15 15 14 13 13 15 16 16 17 17
26 25 25 24 24 24 24 24 24 23 22 22 22 21 21 20 19 17 17 18 18 18 19 19 20 20 20 21 21 21 22 22 21 21 21 21 21 20 20 20 20 19 19 18 17 17 17 17 18 17 17 17 17 16 16 16 15 15 16 17 17 17 18 18 17 17 16 15 15 15 15 15 15 15 15 15 15 14 14 14 15 16 16 17 17
25 25 24 24 24 24 24 24 23 23 22 22 22 21 21 20 19 18 18 18 19 19 20 20 20 21 21 21 21 21 22 22 21 21 20 20 20 19 19 19 19 18 18 17 17 17 17 17 17 17 17 16 16 16 16 15 15 15 15 16 16 17 17 16 16 15 15 15 15 15 15 16 16 16 16 16 16 16 15 16 16 16 16 16 17
24 24 24 23 24 24 24 23 23 23 22 22 21 21 20 20 19 18 19 19 20 20 20 21 21 21 21 21 22 22 21 21 21 21 20 20 19 19 18 18 18 18 18 17 17 17 17 17 18 17 16 16 16 16 16 15 15 14 14 15 15 15 15 15 15 15 15 15 16 16 16 16 17 17 17 17 17 17 16 16 16 16 16 16 16
23 23 23 23 23 24 24 23 23 22 22 21 21 20 20 20 20 20 20 20 20 20 20 20 21 21 21 21 21 21 21 20 20 20 19 19 19 18 18 18 18 18 18 17 17 18 18 18 18 17 16 16 15 15 15 15 15 14 14 14 14 14 13 13 14 15 15 16 16 16 16 17 17 16 16 16 16 16 16 16 15 15 15 15 15
23 23 23 23 23 23 23 22 22 22 22 21 20 20 20 20 20 20 20 20 20 20 20 20 20 21 21 21 20 20 20 19 19 19 19 18 18 17 17 17 18 18 17 17 17 18 18 18 17 16 16 15 15 15 15 14 14 14 14 14 14 13 13 13 14 15 15 15 16 16 16 16 16 16 16 16 16 15 15 14 14 14 14 13 14
23 23 23 23 22 22 22 22 22 21 21 20 20 20 20 20 20 20 20 20 20 21 20 20 20 21 21 21 20 19 19 18 17 18 18 17 17 17 17 17 18 17 17 18 18 18 18 18 17 16 15 15 14 14 14 14 14 14 13 13 13 13 13 13 14 15 15 15 15 16 16 15 15 15 15 15 14 14 13 13 13 13 13 13 13
22 23 23 22 22 22 22 21 21 21 20 20 20 20 20 20 20 20 20 20 20 21 21 21 21 21 21 20 19 19 19 18 16 16 17 16 16 16 17 17 17 17 17 18 18 18 17 17 16 15 15 14 14 13 13 13 13 13 13 13 13 13 13 14 15 15 15 15 15 15 15 15 15 15 14 13 13 13 13 13 13 13 13 13 14
23 23 23 22 21 21 22 21 21 21 20 20 20 20 20 20 20 20 20 20 21 21 21 21 21 21 21 20 19 18 19 18 16 16 16 16 16 16 16 16 16 16 16 16 16 16 16 15 15 14 14 13 13 13 14 14 13 13 13 12 13 13 14 14 14 14 14 15 15 15 15 15 14 14 13 13 13 13 13 13 13 13 14 14 14
23 23 23 22 21 21 21 21 20 20 20 20 20 20 20 20 20 20 20 21 21 21 21 21 21 21 21 20 19 18 18 18 18 17 16 16 16 16 16 16 15 15 15 16 16 15 15 14 13 13 13 13 13 13 14 13 13 13 13 13 13 14 14 14 13 13 13 14 14 14 14 14 13 13 13 13 13 13 13 13 13 13 14 13 13
23 23 22 22 21 21 21 20 20 20 20 20 20 20 20 20 20 20 20 21 21 21 21 21 21 21 21 20 19 18 18 18 19 19 18 17 17 16 16 16 15 15 16 17 17 16 15 14 14 14 13 13 14 14 14 14 14 14 14 14 14 14 14 13 13 13 13 13 13 13 13 13 13 13 13 14 14 14 13 13 13 13 13 13 14
23 23 22 22 21 21 20 20 20 20 20 19 18 19 19 19 19 19 19 20 20 20 20 21 21 21 21 20 19 18 19 19 19 20 19 18 18 18 17 17 17 17 17 17 16 16 16 16 16 17 17 17 16 16 16 17 16 16 15 15 14 14 14 14 14 14 13 13 13 13 13 13 13 13 13 14 14 14 13 13 13 13 13 14 14
23 23 23 22 22 21 21 21 21 21 20 18 18 18 18 18 18 18 18 19 19 19 19 20 20 20 20 20 19 19 19 20 19 19 18 18 18 18 18 18 18 17 17 15 15 16 17 18 19 19 19 19 18 18 18 18 18 17 16 15 14 14 14 14 14 14 13 13 13 13 13 13 13 13 14 14 14 13 13 13 13 13 14 14 15
23 24 24 24 23 22 22 21 21 20 19 18 18 18 17 17 18 18 18 18 18 18 19 19 19 19 19 19 19 19 19 19 18 18 17 17 17 17 17 17 16 16 15 14 15 16 18 19 19 20 19 18 18 18 18 18 17 16 16 16 15 15 14 14 14 13 13 13 13 13 13 13 13 13 13 13 13 14 14 14 14 14 14 15 15
24 24 24 24 23 22 22 22 21 20 19 19 19 19 18 17 16 16 16 17 17 18 18 18 18 19 19 18 18 18 18 18 17 17 17 16 16 16 16 15 15 14 14 14 15 17 18 18 19 19 18 18 18 18 17 17 17 16 16 16 16 15 15 14 13 12 12 13 13 13 13 13 13 13 13 13 14 14 14 14 14 14 15 15 15
24 24 23 23 22 22 23 22 21 21 20 20 20 20 19 19 18 16 15 15 16 17 17 18 18 18 18 17 17 17 17 17 17 17 16 15 15 15 14 14 14 13 13 14 16 17 18 18 18 18 18 18 18 17 16 16 16 16 15 15 15 15 14 12 11 12 12 13 13 13 13 13 13 13 13 14 14 14 14 14 14 15 15 15 15
23 23 23 22 22 22 22 22 22 22 21 20 20 20 20 20 20 18 17 17 17 17 17 17 17 17 17 17 17 17 17 16 16 16 16 15 14 14 13 13 13 13 13 14 16 17 18 17 17 18 17 17 17 16 16 15 15 15 15 14 14 14 13 12 12 13 13 13 13 13 13 13 13 13 13 14 14 14 14 14 14 15 15 15 15
22 22 21 22 22 22 22 22 22 22 21 20 20 21 20 20 20 20 20 20 19 18 17 16 16 16 16 16 16 16 16 15 16 15 15 14 14 13 13 13 13 13 13 14 15 16 17 17 17 17 16 16 15 15 15 14 14 14 14 14 14 13 13 13 13 13 12 12 13 13 13 13 13 13 13 14 14 14 14 14 14 14 14 14 14
22 22 21 22 22 22 22 22 21 21 21 21 20 20 21 20 20 20 20 20 20 19 17 15 14 15 15 15 15 15 15 15 15 14 14 13 13 13 14 15 16 16 15 15 15 16 16 16 16 16 16 15 14 14 14 14 13 13 13 13 13 13 13 13 13 12 12 12 13 13 13 13 13 13 13 14 14 14 14 14 14 14 14 14 14
23 23 22 22 22 22 22 21 21 21 20 20 20 20 20 20 20 20 20 20 20 19 17 14 13 13 13 13 13 14 13 13 13 13 13 13 13 13 15 17 18 17 16 16 16 16 16 15 15 15 14 14 14 14 14 13 13 12 12 12 12 12 12 12 11 11 11 12 13 13 13 13 13 13 13 13 13 14 14 14 14 14 14 14 14
22 22 22 21 21 21 21 21 20 20 20 20 20 20 20 20 20 21 20 20 20 19 17 15 14 14 13 12 12 12 13 13 12 12 12 12 12 13 15 17 17 17 17 16 15 15 15 15 14 14 14 14 13 13 13 13 13 12 12 12 12 12 11 11 11 11 11 12 12 13 13 13 13 13 13 13 13 14 14 13 14 14 14 14 14
21 21 20 20 20 21 21 20 19 19 20 20 20 20 20 20 20 20 20 19 19 18 17 16 16 16 15 13 11 12 13 13 14 14 13 13 13 14 16 17 17 16 16 16 15 15 15 15 14 14 13 13 12 12 12 12 12 12 11 11 12 12 12 12 12 12 12 12 12 12 12 12 13 13 13 13 13 13 13 13 13 14 14 14 14
21 21 20 19 20 20 20 20 20 20 20 20 20 20 20 20 19 19 19 19 19 19 18 17 17 17 16 14 13 13 14 15 16 16 15 15 15 16 16 17 17 16 16 15 15 15 15 15 14 14 13 12 12 12 11 11 11 11 11 11 12 12 12 12 12 12 12 12 12 12 12 12 12 12 13 13 13 12 13 13 13 14 14 14 14
21 20 19 19 19 20 20 20 20 20 20 20 20 19 19 19 19 19 19 19 19 19 18 18 18 18 16 14 14 14 16 17 17 17 16 16 16 16 16 16 16 16 15 15 15 14 14 14 14 13 13 12 12 12 11 11 11 11 11 11 12 12 12 12 12 12 11 11 11 12 12 12 12 12 12 12 12 12 13 13 13 13 14 14 14
21 20 20 19 19 20 20 20 20 20 19 20 20 19 19 19 19 19 19 19 19 19 18 18 18 17 15 14 14 14 16 17 17 17 17 17 17 16 16 16 15 15 15 15 14 14 14 14 13 13 12 12 12 11 11 11 11 11 11 11 11 11 12 12 12 11 11 11 11 11 11 11 11 11 12 12 12 13 13 13 13 13 14 14 14
21 20 20 20 20 21 21 20 20 20 20 20 20 19 19 19 19 19 19 19 19 19 18 18 18 16 14 13 14 14 15 17 17 17 17 17 16 16 16 16 15 15 14 14 14 14 14 13 13 12 12 12 11 11 10 10 10 10 11 11 11 11 11 11 11 11 11 11 11 10 10 11 11 11 12 12 12 13 13 13 13 13 13 13 14
21 21 20 21 21 21 20 20 20 20 19 19 18 18 18 19 19 19 19 19 18 18 18 18 18 16 14 13 13 14 15 16 17 16 16 16 16 16 16 16 15 14 14 13 13 13 13 13 13 12 12 11 10 10 10 10 10 10 10 10 10 10 10 10 10 10 10 10 10 10 10 11 11 11 12 12 12 12 13 13 13 13 13 13 13
21 21 20 20 20 20 19 19 19 18 18 18 18 18 18 18 18 18 18 18 18 18 18 18 18 17 15 14 14 14 15 16 16 15 15 16 16 16 16 15 15 14 13 13 13 12 12 13 12 12 11 11 10 9 9 9 9 9 9 9 10 10 10 10 9 9 9 9 9 10 10 10 11 11 11 11 12 12 13 13 13 13 13 13 13
20 20 20 19 19 19 19 18 18 18 18 18 19 19 19 18 18 18 18 18 17 17 18 18 18 17 16 16 15 15 15 14 15 15 15 15 16 16 15 15 14 14 13 13 12 12 12 12 12 12 11 11 10 9 9 9 8 8 8 8 8 9 9 8 8 8 8 8 9 9 9 10 10 11 11 11 11 12 12 12 12 13 13 13 13
19 19 19 19 19 18 18 18 18 18 19 19 19 19 19 19 18 19 18 18 18 18 18 18 17 17 17 16 16 15 14 14 14 15 15 15 16 16 15 15 14 13 13 13 12 12 12 12 12 11 11 10 9 9 9 9 9 8 8 8 8 8 8 7 7 7 7 7 8 8 8 9 10 11 11 11 11 12 12 12 12 12 12 13 13
19 19 19 19 18 18 18 18 18 18 18 19 19 19 19 19 19 19 18 18 17 18 18 18 17 17 17 16 16 16 15 15 15 15 15 15 15 15 15 15 14 13 13 13 12 12 12 12 11 11 11 10 9 9 9 9 9 8 8 8 7 7 7 6 6 6 6 6 7 7 8 9 10 10 10 11 11 11 12 12 12 12 12 13 13
18 19 19 19 19 19 19 18 18 19 19 19 18 19 19 19 19 19 18 18 18 18 18 18 18 17 17 17 16 16 16 15 15 15 15 15 15 15 15 14 13 13 13 13 12 12 11 11 11 11 10 10 9 9 9 9 9 8 8 8 7 6 6 6 6 6 6 6 6 7 8 9 9 10 10 10 11 11 11 11 11 12 12 13 13
18 19 19 19 19 19 18 19 19 19 19 19 19 19 18 18 18 18 18 18 18 18 18 18 18 18 18 17 17 16 16 16 15 16 16 16 15 15 14 14 13 13 13 13 12 12 11 11 11 10 10 10 9 9 9 9 9 8 8 7 6 6 6 6 6 6 6 6 6 7 8 9 9 9 10 10 11 11 11 11 11 11 12 13 13
18 19 19 19 19 18 18 18 19 19 18 18 19 18 18 18 18 18 18 18 18 18 17 17 17 17 17 17 17 17 16 16 16 16 16 16 15 15 14 14 13 13 13 13 12 12 12 11 11 10 10 10 10 9 9 9 9 8 8 7 6 6 6 6 6 6 6 6 5 6 7 9 9 9 10 10 10 10 11 11 11 11 12 13 13
Height
758 761 764 767 770 773 776 778 781 783 786 788 790 793 795 797 800 802 804 806 809 812 815 818 819 819 819 819 821 824 826 827 827 827 829 830 830 831 832 833 834 834 834 835 835 835 835 835 834 834 834 834 833 833 833 833 833 832 832 832 831 831 831 831 829 826 823 823 822 821 820 820 819 818 818 817 816 816 815 814 813 812 810 809 808
754 757 760 763 766 769 772 774 777 779 782 784 786 789 792 794 796 799 801 804 806 809 811 814 816 816 816 816 816 818 820 823 824 825 826 827 828 829 830 831 832 832 833 833 833 833 833 832 832 832 832 831 831 831 831 831 830 830 830 829 829 828 828 828 826 824 822 821 820 818 817 817 816 816 815 814 813 813 812 811 810 809 808 806 805
750 753 756 759 762 765 768 770 773 775 778 780 782 786 789 791 794 796 799 802 804 806 807 809 812 812 813 814 813 814 815 818 821 823 824 825 826 826 827 828 829 830 830 830 830 830 830 830 830 829 829 829 829 829 829 828 828 827 827 827 826 825 825 825 824 822 820 819 818 817 815 814 813 813 812 811 810 810 809 808 807 806 805 804 803
747 749 752 755 758 761 764 766 769 771 773 775 778 781 785 787 790 793 796 798 800 802 804 805 807 809 810 811 811 812 812 813 816 820 823 823 823 824 824 825 827 827 828 828 828 828 828 827 827 827 827 827 826 826 826 826 825 825 824 824 823 822 822 822 821 820 818 816 815 815 814 812 811 810 809 808 808 807 806 805 804 803 802 801 800
743 745 748 751 754 757 759 761 764 766 768 770 773 777 780 782 785 788 791 794 796 798 799 801 803 805 806 807 809 810 810 810 811 815 820 822 821 821 821 822 823 824 825 825 825 826 826 825 825 825 825 824 824 824 824 823 823 822 821 821 820 820 819 818 818 817 816 814 812 811 811 810 809 808 807 806 805 804 803 802 801 800 799 798 797
738 741 744 747 749 752 754 756 759 761 763 766 769 772 776 778 780 783 786 789 791 793 795 796 798 800 801 803 805 808 808 809 809 811 816 819 819 819 819 819 820 821 822 822 823 823 823 823 823 823 823 822 822 822 821 821 820 819 819 818 817 817 816 815 815 814 813 811 809 808 808 807 806 805 804 803 802 801 800 799 798 797 796 795 794
735 738 740 743 746 748 750 752 754 757 760 763 766 768 772 775 776 779 783 785 787 788 790 791 793 795 796 797 801 804 806 807 808 809 812 816 817 817 817 818 818 818 819 820 821 821 821 821 820 820 820 820 820 820 819 819 818 817 816 815 815 814 813 812 812 811 810 808 807 806 805 805 804 802 801 800 799 798 798 796 794 794 793 792 791
732 735 738 740 743 745 747 750 752 755 759 761 763 766 769 772 776 779 781 781 781 782 783 785 788 790 792 793 795 799 802 804 805 806 808 811 814 815 815 815 816 816 817 817 818 818 818 818 818 818 818 818 818 817 817 816 815 814 814 813 812 811 810 810 809 808 807 806 804 803 802 802 801 799 799 798 796 795 795 794 792 790 790 789 787
730 732 735 737 740 742 745 748 751 755 758 759 761 764 767 770 775 778 777 776 777 777 778 780 783 786 789 791 793 795 797 800 802 804 806 808 810 812 812 812 813 813 814 814 814 815 815 815 815 815 815 815 815 815 814 814 813 812 812 811 810 809 808 807 806 805 804 803 802 800 798 798 797 796 795 794 793 792 792 792 790 788 787 785 783
727 730 732 735 738 740 743 745 749 752 755 757 759 762 764 767 770 771 770 770 772 773 774 776 779 782 786 790 792 793 794 796 799 803 805 806 808 809 810 810 810 810 811 811 811 811 811 812 812 812 812 812 812 812 811 811 811 810 810 809 808 807 806 805 804 803 801 800 799 798 796 795 794 793 792 791 790 790 789 789 787 785 784 781 779
725 727 730 733 736 739 741 743 746 749 752 754 756 758 760 762 764 764 764 765 767 769 771 775 777 780 785 789 791 791 792 794 797 800 803 804 806 807 807 807 807 807 808 808 808 808 808 809 808 808 809 808 808 808 808 808 808 807 806 806 805 805 804 803 802 801 800 798 797 796 794 792 791 791 790 789 788 788 787 786 784 783 781 779 775
722 725 727 731 733 736 739 741 743 747 749 751 753 754 756 758 760 760 760 761 763 766 770 774 777 780 783 786 788 789 790 792 795 798 800 801 803 804 804 804 804 804 805 805 806 806 806 806 806 805 806 805 805 806 805 805 805 804 803 803 802 802 801 801 800 799 798 797 795 794 792 791 789 789 788 787 786 786 785 784 782 780 779 777 774
720 722 725 728 730 732 736 738 740 744 746 747 749 751 752 754 756 757 758 760 761 764 768 772 776 779 781 783 786 787 789 791 794 796 798 799 800 800 801 801 801 801 802 803 803 804 804 804 803 803 803 803 803 803 803 803 802 802 801 800 799 798 798 797 797 796 796 795 793 792 791 789 788 787 787 786 785 784 783 781 780 778 776 775 772
717 720 722 725 727 729 732 735 738 741 743 745 747 748 749 750 752 754 756 759 761 763 766 770 774 777 779 781 783 785 787 790 793 794 795 795 797 797 797 798 798 799 799 800 801 801 802 802 801 801 801 801 801 801 801 801 800 800 799 798 797 795 794 794 793 793 793 792 791 790 789 788 787 785 785 784 783 782 781 779 778 776 774 772 770
715 718 720 722 724 727 729 732 736 738 740 743 745 746 747 748 749 752 755 759 761 762 765 769 772 776 778 780 781 783 785 788 790 791 791 792 793 794 795 795 796 797 797 798 799 800 800 800 800 800 800 800 800 799 799 799 798 798 797 796 795 793 792 791 790 790 790 790 789 788 786 786 785 784 783 783 781 780 779 777 775 773 771 768 765
713 716 718 720 723 725 727 731 733 736 738 741 742 744 746 746 748 752 755 757 759 762 765 767 770 774 776 778 780 781 783 785 786 786 787 789 790 792 793 794 794 795 796 797 797 798 798 799 799 799 799 799 798 797 797 797 797 796 795 794 792 791 789 788 788 788 788 787 787 786 784 783 782 781 780 780 779 778 777 775 772 770 767 763 759
711 714 717 719 721 724 726 729 731 734 736 739 741 743 745 746 748 751 753 754 757 760 763 766 769 772 774 776 778 778 779 781 782 783 784 786 787 789 790 791 792 793 794 795 795 795 796 797 797 797 798 797 796 795 795 796 795 794 793 792 790 789 787 786 785 785 785 784 784 783 782 781 780 778 778 777 776 775 774 772 769 766 763 759 755
710 713 716 718 720 723 725 727 730 732 735 737 740 742 743 745 747 749 750 752 755 759 761 764 768 770 771 773 774 774 775 777 779 780 781 782 783 785 788 789 790 791 792 793 793 793 794 794 794 795 796 795 794 793 794 794 793 792 791 790 788 787 786 785 784 783 782 781 781 780 779 778 777 776 774 774 773 772 771 769 766 763 759 756 752
709 712 715 717 719 722 724 726 728 731 733 736 738 741 742 744 746 748 749 751 754 757 760 763 766 767 768 769 770 771 772 774 775 777 777 779 780 782 785 786 787 788 789 790 791 791 792 792 791 791 793 793 792 792 792 792 791 790 789 788 786 785 784 784 783 782 781 780 779 778 776 775 774 773 772 770 769 768 767 765 763 760 756 753 750
708 711 713 716 718 721 722 725 727 729 732 735 737 740 741 743 746 747 749 751 754 757 759 761 763 764 765 765 766 768 769 771 772 773 775 776 778 780 782 783 784 785 785 786 787 788 789 789 788 788 789 790 790 790 790 789 789 788 787 786 785 784 783 783 782 781 780 779 778 776 775 774 772 771 769 768 766 765 764 762 760 757 754 751 748
706 709 712 715 718 719 721 724 726 728 731 733 736 738 741 743 745 747 748 751 753 755 756 758 759 761 762 763 764 765 767 768 769 770 772 774 775 777 779 779 780 781 782 783 785 785 785 786 786 786 786 787 788 788 787 787 786 785 785 784 783 782 782 782 781 780 778 777 776 774 773 771 770 768 766 765 764 762 761 759 757 755 753 749 746
704 707 711 714 716 718 720 722 724 727 730 732 734 737 739 741 744 745 747 748 750 752 754 755 757 758 759 761 762 763 764 766 767 768 770 771 772 774 776 776 778 779 780 782 782 782 783 784 784 784 784 785 786 785 785 784 783 782 782 781 781 780 780 780 779 778 776 775 774 772 771 769 768 766 764 763 761 760 758 756 754 752 750 747 745
703 706 710 713 715 717 719 722 724 726 728 731 733 736 738 740 742 743 745 746 748 750 751 753 755 756 757 759 760 761 763 764 764 765 766 768 770 771 773 775 776 778 779 779 780 780 781 782 782 782 783 783 783 783 782 781 781 780 780 780 779 779 779 778 777 776 775 774 773 771 769 768 766 764 762 761 759 757 756 753 750 748 746 743 742
703 706 709 712 715 717 719 721 724 726 728 731 733 734 736 738 740 742 744 745 746 748 749 751 752 753 755 757 758 759 761 761 762 763 764 766 768 769 771 773 774 776 777 778 779 779 780 780 780 781 782 782 781 781 780 780 779 779 778 778 778 777 777 776 776 775 774 773 771 769 768 766 765 762 760 758 756 754 752 749 746 744 742 740 738
703 706 709 712 714 716 719 721 724 726 728 731 732 733 735 737 739 741 742 743 744 745 747 749 750 751 753 755 757 759 760 761 761 761 763 765 767 768 770 771 772 774 775 776 777 778 778 779 779 780 780 780 779 779 778 778 777 777 777 776 776 776 775 775 774 773 772 771 769 767 766 764 762 760 758 756 754 751 748 746 744 741 739 736 734
703 706 709 711 714 716 718 721 724 727 729 730 731 732 734 736 737 739 740 741 742 743 745 746 748 750 752 754 756 758 759 761 761 761 762 764 765 766 768 769 771 773 774 775 776 776 777 778 778 778 778 778 778 778 777 776 776 775 775 774 774 774 774 773 773 772 771 769 768 766 764 762 760 758 756 753 751 749 746 744 742 739 736 734 731
703 706 708 711 714 716 719 722 725 727 729 730 731 732 733 735 736 737 738 738 739 741 743 745 747 749 751 752 754 756 758 760 761 761 761 763 764 764 766 768 769 771 773 774 774 775 776 776 776 777 776 776 776 775 775 775 774 774 773 773 773 773 772 772 771 771 769 768 766 764 762 760 757 755 753 751 748 746 745 743 740 737 734 732 729
703 706 708 711 714 716 719 722 724 726 728 730 731 732 733 734 735 736 737 737 738 740 742 744 746 748 749 751 752 755 757 759 759 759 759 761 762 763 764 766 768 769 771 772 773 774 775 775 775 775 775 775 774 773 773 774 774 773 773 772 771 771 771 770 769 768 767 766 764 762 760 757 755 753 751 749 746 745 743 741 739 736 733 730 726
703 705 708 711 714 717 719 721 723 725 727 729 730 731 732 734 735 736 736 737 738 740 741 743 745 746 747 749 750 753 755 756 756 756 757 759 760 762 763 765 766 767 768 769 771 773 773 772 772 772 771 771 771 771 771 770 770 771 772 771 770 769 768 768 767 766 765 764 762 760 758 755 754 751 749 747 745 743 742 740 737 734 731 728 725
702 705 708 711 714 716 718 720 722 724 726 728 729 731 732 734 735 736 736 737 738 740 741 742 744 745 746 747 749 750 752 752 753 754 756 757 759 760 761 763 764 765 766 767 769 770 769 768 767 766 766 767 767 768 767 766 766 767 768 769 769 768 767 766 765 764 764 763 760 758 756 754 752 750 748 746 744 742 740 738 735 732 729 726 722
702 704 706 708 711 715 716 718 721 723 725 727 729 731 732 734 734 735 736 737 738 739 740 741 742 744 745 746 747 748 750 751 752 754 755 756 758 759 760 762 763 764 765 766 767 767 766 764 763 762 764 765 765 765 765 765 765 766 766 766 766 765 765 765 764 763 762 761 759 757 755 754 752 749 747 745 743 740 738 735 733 730 727 724 721
702 704 706 708 711 713 715 717 720 723 725 727 728 729 731 733 734 735 735 736 737 737 738 740 741 742 744 746 746 747 749 750 752 753 754 755 757 759 760 761 763 764 765 765 765 765 763 762 762 762 763 764 763 764 764 764 764 765 765 764 764 763 763 763 762 762 761 759 758 756 754 753 751 748 746 744 742 739 736 734 731 728 725 722 720
703 704 706 709 711 713 714 717 720 722 723 725 726 727 729 731 732 733 734 735 736 737 737 739 740 741 743 745 746 747 748 750 751 752 753 755 757 758 759 761 762 763 764 764 764 763 762 763 762 762 763 762 762 763 764 764 764 764 763 763 763 762 762 762 761 760 759 758 757 755 753 752 750 747 745 743 741 738 735 733 730 727 724 721 719
703 705 707 709 711 713 714 716 718 720 722 724 725 726 728 729 730 731 732 733 735 736 737 738 739 741 743 744 746 747 748 749 750 751 753 754 756 757 759 760 761 762 763 763 763 761 761 762 762 762 762 762 762 762 763 763 763 763 762 762 762 761 761 761 760 759 758 757 756 754 752 751 749 747 744 742 739 737 735 732 729 727 724 721 718
704 705 707 709 711 712 714 716 717 719 721 723 725 726 727 728 728 729 730 731 733 735 737 738 740 741 742 744 745 747 748 749 750 751 752 754 755 757 758 759 761 761 762 763 763 761 760 760 761 761 762 762 762 762 762 762 762 762 761 761 761 760 760 759 759 758 757 756 755 753 752 751 748 746 744 741 739 737 734 731 729 727 724 722 718
703 705 707 709 711 712 714 716 717 719 721 722 724 725 725 726 727 728 729 731 732 734 737 739 740 741 743 744 746 747 748 749 750 750 752 753 754 756 757 757 758 759 760 761 761 761 761 761 760 761 761 762 761 761 761 761 761 761 761 760 760 760 759 758 758 758 757 756 754 753 751 750 748 745 743 741 738 736 733 731 729 727 724 722 719
703 705 707 709 710 712 713 716 717 719 721 722 723 724 725 726 727 728 729 730 732 735 737 739 740 742 744 745 746 748 748 749 750 751 752 753 755 756 756 755 755 756 757 758 759 759 760 761 760 760 760 760 760 760 760 760 760 760 760 760 760 759 759 758 757 757 757 755 753 752 751 749 747 745 743 740 738 735 733 731 729 726 724 722 719
704 705 706 708 710 711 713 715 717 718 720 721 722 723 725 726 727 728 729 731 733 735 737 739 741 743 744 746 747 748 748 749 750 751 752 753 754 755 755 754 754 755 756 757 758 759 759 759 760 760 760 759 759 759 759 759 759 759 759 759 758 758 758 757 756 756 755 754 753 751 750 748 746 744 742 740 738 735 733 731 729 726 723 721 718
703 704 706 707 709 710 712 714 716 717 719 721 722 723 724 726 727 728 730 732 734 735 736 738 740 742 744 745 747 747 748 749 750 751 752 753 754 754 753 752 753 754 755 756 757 758 758 758 759 759 760 760 759 759 759 759 758 758 758 758 757 757 756 756 755 755 754 753 752 751 749 748 746 744 742 740 738 735 733 731 729 726 723 721 718
702 704 705 707 708 710 711 713 715 717 718 720 721 723 724 726 728 729 730 731 733 734 735 737 738 739 741 743 744 746 747 748 748 749 750 751 751 752 752 751 752 753 755 755 756 757 757 757 757 758 759 760 759 759 759 758 758 757 757 757 756 756 755 755 754 754 753 753 752 751 749 747 746 744 742 740 738 736 734 731 729 726 724 721 718
701 703 704 706 708 710 711 713 715 716 718 720 721 722 724 726 728 729 730 730 731 733 734 735 735 737 738 740 741 743 745 745 745 746 747 748 748 749 750 750 751 752 754 754 755 755 755 755 756 757 758 758 759 759 758 757 757 757 756 756 755 755 754 754 754 753 753 752 751 750 749 747 745 744 742 740 738 736 733 731 729 726 724 721 718
701 702 704 706 708 710 711 713 715 716 718 719 720 722 724 725 727 728 729 729 730 732 733 733 734 736 737 739 740 742 743 742 743 744 745 746 747 748 749 750 751 752 753 753 753 754 754 754 755 756 756 757 758 758 757 757 756 756 755 755 755 754 754 753 753 753 752 752 751 749 748 747 745 744 742 740 738 735 733 731 729 727 724 721 719
700 702 704 706 708 709 710 712 714 716 718 719 720 722 723 725 726 727 727 728 730 731 732 733 734 735 737 738 740 741 741 741 742 743 744 745 746 747 748 749 750 751 752 752 752 753 753 753 755 756 756 756 757 757 757 756 756 755 755 754 754 754 754 753 753 752 752 751 750 749 748 746 745 743 741 740 738 736 733 731 729 727 725 722 719
700 702 704 706 707 709 711 713 714 716 718 719 721 723 723 724 725 726 726 728 729 730 730 731 732 734 737 738 740 741 741 740 741 743 743 744 745 746 746 747 749 750 751 751 751 752 752 753 754 755 755 756 757 757 756 756 755 755 755 754 754 754 753 753 752 752 751 751 750 748 747 746 744 743 741 740 738 736 733 731 730 728 725 723 720
700 702 704 705 707 709 711 713 715 717 719 721 722 723 723 724 725 725 727 728 729 729 730 730 730 732 735 737 739 740 740 741 741 742 743 743 744 745 746 747 748 750 751 750 751 752 752 752 753 754 755 755 756 756 755 755 754 754 754 754 754 753 753 752 752 751 751 750 749 748 747 746 744 743 741 740 738 736 734 732 730 728 726 724 721
701 702 704 706 708 711 713 714 716 718 719 720 721 721 722 723 724 725 726 727 728 729 729 729 730 731 732 734 736 738 739 740 741 741 742 742 742 743 745 746 748 749 749 749 750 751 752 752 752 752 753 754 755 755 754 754 753 753 753 753 753 753 752 752 751 751 750 750 749 748 747 746 744 743 742 740 738 737 735 733 731 728 727 724 722
702 704 706 708 710 712 713 715 716 717 718 719 720 720 721 722 723 724 725 726 727 728 728 728 729 730 730 732 734 735 737 738 739 739 740 741 741 742 743 745 747 748 748 748 749 750 750 751 751 752 753 753 753 753 753 753 753 753 753 753 753 752 751 751 750 750 750 749 748 747 747 746 744 743 742 740 739 737 735 733 731 729 727 725 723
704 706 707 709 710 712 714 715 716 717 718 719 719 720 720 722 722 723 724 726 727 727 727 728 729 729 730 731 732 733 734 735 736 738 739 739 740 741 742 743 745 746 747 747 748 749 749 749 750 751 751 752 752 752 752 752 752 752 752 752 752 751 750 750 749 749 749 748 747 747 746 745 744 743 742 741 739 737 735 734 732 730 728 725 723
706 707 708 709 710 712 713 714 716 717 717 719 720 720 720 721 722 723 724 725 726 726 727 727 727 728 729 730 731 731 732 733 735 736 737 737 738 740 741 742 743 744 745 746 747 747 748 748 749 749 750 750 750 751 751 751 751 752 752 751 750 750 749 749 748 747 747 747 747 747 746 745 744 743 742 741 739 738 736 734 733 731 728 726 724
706 707 708 710 710 712 713 714 714 715 717 718 719 720 721 721 722 723 724 725 725 726 726 726 726 727 727 728 729 730 730 731 732 733 733 734 736 738 739 741 742 742 743 744 745 745 746 747 747 748 748 749 749 749 749 750 750 751 750 750 749 749 749 748 747 746 746 746 746 746 746 745 744 743 742 740 739 738 736 735 734 731 729 727 725
706 707 708 709 710 711 713 714 714 715 717 718 718 719 720 721 721 722 723 724 724 724 725 725 726 726 726 726 727 728 728 729 730 730 731 732 734 736 737 739 739 740 741 742 743 743 744 745 746 746 747 747 747 748 748 748 749 749 749 749 749 748 748 747 746 746 745 745 745 745 745 744 744 743 742 741 740 738 737 736 734 732 730 728 726
Wind_Speed
29 27 27 26 24 23 24 25 25 24 23 24 24 23 22 23 24 21 20 21 20 18 17 17 17 17 17 17 17 16 15 15 14 13 12 12 11 10 9 9 9 9 9 10 10 10 10 11 12 11 11 11 12 12 11 11 11 12 12 13 14 13 12 13 13 14 17 18 16 16 16 16 16 16 17 18 18 17 17 17 18 19 20 19 18
28 27 25 25 24 25 25 25 25 24 24 24 24 24 25 27 27 23 21 21 20 19 19 20 21 21 21 20 21 22 20 18 17 15 14 14 13 11 10 10 10 11 11 11 12 12 12 13 13 13 12 12 13 12 12 12 12 13 13 13 15 15 14 14 15 14 16 17 18 18 17 17 16 16 16 18 18 17 17 17 18 18 18 19 18
27 26 24 24 25 25 24 24 25 25 25 25 26 26 24 25 27 26 22 21 22 24 23 24 25 25 22 21 24 25 23 20 18 17 17 16 14 13 11 11 12 12 12 13 13 13 13 14 14 13 12 12 12 12 12 13 13 13 14 14 15 16 15 15 15 16 16 16 17 18 18 18 18 17 17 17 17 17 18 18 18 18 18 18 18
26 25 24 25 25 25 24 25 25 26 26 26 28 28 24 23 27 28 23 22 26 28 26 26 28 27 24 24 26 27 24 23 21 19 18 17 16 14 13 13 13 14 14 14 14 14 14 14 13 13 12 12 12 12 12 13 13 14 14 14 15 16 16 15 15 16 17 17 17 17 18 19 19 19 18 18 17 17 17 17 17 17 17 17 18
25 24 24 25 25 25 26 26 26 28 28 26 27 29 26 24 27 28 26 25 28 29 28 28 30 29 28 27 28 28 26 25 24 20 18 18 17 16 15 15 15 15 14 15 15 15 14 14 13 12 12 12 12 12 12 12 13 14 14 14 14 15 15 16 16 15 17 18 18 18 18 19 19 20 19 18 17 17 16 16 16 16 16 17 18
25 24 23 24 25 26 27 27 27 29 28 26 26 28 27 26 27 29 28 28 29 30 30 32 33 32 31 30 29 29 27 26 25 22 18 18 19 19 17 16 15 15 15 15 16 16 15 15 14 13 13 13 12 12 12 12 13 14 14 14 15 15 15 15 14 14 16 18 19 19 18 18 18 19 18 17 17 17 17 17 17 17 17 17 18
24 23 22 23 24 26 27 27 27 27 26 26 26 28 28 27 27 28 28 29 31 30 30 34 35 34 34 32 31 30 28 26 25 22 20 20 21 20 17 16 16 15 16 16 16 16 16 15 14 14 14 13 13 13 13 13 14 14 15 14 14 15 15 15 14 15 16 18 19 18 17 17 18 19 19 19 18 17 17 17 18 18 18 18 19
22 22 21 21 22 23 25 25 24 23 22 23 24 27 27 25 24 26 29 32 33 32 35 39 38 37 36 33 31 30 29 27 25 24 23 22 20 18 16 16 16 16 16 16 16 17 16 15 15 15 15 15 15 15 14 14 14 14 15 15 15 16 17 17 17 17 17 17 18 18 16 17 19 19 19 19 18 17 16 17 19 20 20 20 20
20 21 20 20 20 20 21 21 20 20 21 21 24 25 24 25 25 29 34 36 35 35 38 40 38 38 37 33 31 31 30 29 28 25 23 20 18 18 18 17 17 17 16 16 17 17 16 16 16 16 16 17 18 19 18 17 17 17 16 15 16 17 18 18 18 19 19 18 18 18 16 17 18 17 17 18 18 18 17 17 18 19 20 22 22
19 20 20 20 19 18 19 20 20 22 22 23 24 24 25 29 31 35 39 40 40 40 40 40 39 37 33 29 29 30 29 29 28 25 23 19 17 17 18 17 17 16 16 16 17 16 16 16 16 17 19 20 22 23 22 20 20 19 18 17 17 18 18 18 18 18 20 20 20 19 18 18 17 16 17 18 18 17 17 16 17 18 20 22 22
18 19 19 18 18 18 19 19 20 22 23 24 24 24 27 33 36 37 40 43 43 41 41 39 33 28 26 26 27 28 29 28 26 26 26 23 19 18 17 16 15 15 16 17 16 16 16 16 16 17 18 19 19 19 19 20 20 20 19 18 18 18 18 18 18 18 19 20 20 19 18 19 18 18 19 19 17 17 16 16 18 19 21 20 19
17 18 17 17 17 18 19 18 18 21 23 24 24 24 28 36 39 39 40 43 44 41 38 34 27 24 25 24 24 25 27 26 24 26 27 24 21 21 18 16 15 14 15 16 16 15 15 14 15 16 16 16 15 14 14 17 18 19 18 17 16 17 18 18 18 17 18 17 18 18 18 18 19 19 18 17 18 19 18 18 20 21 22 21 21
17 17 17 16 16 18 19 18 18 20 22 22 22 23 27 35 41 37 30 33 41 41 33 27 25 26 24 20 19 19 20 22 25 27 26 22 21 21 19 16 15 14 15 15 15 15 14 13 13 14 13 14 14 13 12 14 16 16 17 16 17 17 17 17 17 17 17 16 17 18 17 17 18 18 16 16 19 20 20 21 22 22 23 23 24
17 16 15 15 16 17 18 17 18 19 20 20 21 22 25 32 40 37 26 25 33 34 27 21 22 23 22 20 20 18 16 18 24 26 25 22 20 21 20 18 16 15 15 15 14 14 13 12 12 12 12 11 12 11 11 12 13 14 15 16 17 16 16 17 17 17 16 16 17 18 18 17 18 18 17 17 20 21 20 20 20 20 22 24 26
15 14 15 15 15 16 16 16 16 16 19 22 22 22 24 28 33 33 27 24 24 23 20 19 19 20 20 19 19 19 18 20 23 24 23 22 21 22 21 19 17 16 16 15 14 13 12 11 11 11 11 11 11 13 12 11 11 12 14 15 15 15 15 15 15 15 15 15 16 17 18 17 17 18 19 18 19 19 17 17 18 18 20 23 24
14 14 14 14 14 14 14 15 15 16 20 23 22 21 23 24 26 25 24 24 22 17 16 17 18 17 18 18 18 19 20 21 22 22 22 22 22 23 21 19 17 16 15 13 12 10 9 8 7 9 10 11 13 16 15 12 11 12 14 14 15 14 14 14 15 15 15 14 15 16 18 19 19 19 18 17 17 16 15 15 16 17 18 20 22
13 13 13 13 13 13 13 14 14 16 19 23 23 20 21 23 24 23 24 26 23 18 17 17 17 17 17 18 20 21 21 20 19 20 20 21 22 22 19 17 16 16 13 10 9 9 8 7 8 9 10 12 15 17 16 14 12 12 13 14 14 14 14 14 15 15 14 14 16 17 18 19 19 19 17 15 16 15 13 14 15 15 16 17 18
12 12 12 12 12 12 12 13 14 15 18 22 23 20 21 23 23 22 24 25 22 19 19 17 17 18 20 22 23 23 22 19 18 19 19 20 22 21 17 16 15 13 9 7 7 8 9 11 13 12 12 14 16 17 16 15 13 12 12 13 13 14 13 12 12 12 13 15 17 18 19 19 20 20 18 17 16 15 14 15 15 17 18 18 18
12 11 11 12 12 11 11 12 14 15 17 21 23 21 21 24 22 20 22 22 19 19 19 18 19 21 23 24 23 22 20 17 16 17 18 20 21 19 15 14 11 8 6 5 6 8 10 14 16 16 16 16 17 17 16 15 13 11 11 12 12 12 11 11 12 12 14 15 17 18 19 19 19 20 20 19 18 16 15 16 17 18 20 22 22
11 11 11 12 12 11 10 11 13 14 14 18 21 20 19 21 20 20 21 20 18 18 19 19 20 21 20 20 20 19 18 16 15 17 18 18 18 17 15 12 11 11 10 8 8 9 11 13 15 16 16 16 16 16 16 15 13 11 11 11 11 12 11 11 12 13 14 16 17 18 19 19 19 19 19 18 16 15 15 15 16 18 19 22 23
13 12 12 12 11 11 11 11 12 13 13 15 18 18 17 18 19 19 19 20 19 18 18 18 19 18 17 16 16 15 15 14 14 16 18 17 16 17 17 14 15 15 12 9 9 10 11 12 12 14 14 14 14 15 14 14 14 12 11 11 12 14 13 12 12 13 14 16 17 18 18 19 20 19 17 15 14 14 14 15 16 18 19 21 23
14 14 13 12 11 11 11 11 12 13 12 13 16 16 16 18 19 18 18 18 18 17 17 16 15 14 14 13 12 11 12 13 14 15 16 17 18 20 19 16 17 15 11 11 13 13 12 10 10 12 14 13 14 14 14 13 12 10 10 9 10 10 10 10 11 12 14 15 17 18 19 20 19 17 15 15 15 15 16 18 20 21 21 21 22
15 14 13 12 11 11 11 11 12 12 12 14 17 17 15 17 18 17 16 15 16 16 16 15 14 13 11 10 10 10 10 11 14 17 18 17 19 21 19 16 15 12 11 13 14 12 11 9 10 13 15 14 13 12 10 9 8 7 7 7 7 9 9 9 10 11 13 15 17 18 19 18 17 15 15 16 16 18 19 21 22 21 20 21 22
15 14 12 12 11 11 11 11 12 12 12 14 17 18 16 16 16 15 15 14 15 15 15 14 13 11 8 8 8 9 8 8 12 16 17 16 17 20 18 15 13 12 12 11 10 10 10 10 11 14 14 13 11 9 8 7 6 6 6 7 9 9 8 8 10 12 14 15 17 17 17 16 15 15 16 17 19 21 22 21 20 20 20 21 22
14 13 11 11 10 10 10 11 12 12 12 14 17 17 17 16 15 14 14 14 15 15 13 13 11 8 7 8 8 8 8 9 10 12 14 14 15 17 17 15 13 14 13 9 9 11 11 12 14 14 13 10 8 6 6 6 5 6 7 8 9 8 8 9 11 12 14 15 15 15 15 15 15 16 17 19 20 20 20 19 18 19 20 20 21
12 11 10 10 10 10 10 11 12 13 12 13 15 15 16 16 15 14 14 14 15 14 12 11 10 8 6 8 8 7 7 8 8 9 12 16 16 16 16 14 13 14 14 10 11 13 13 13 13 11 9 8 6 5 7 8 8 9 9 7 7 7 7 8 10 11 12 13 13 14 15 16 17 17 17 18 18 18 18 18 18 19 20 19 20
11 10 9 9 10 10 10 10 11 12 12 12 13 14 15 15 14 13 13 15 15 13 11 9 9 7 6 7 8 8 8 9 8 8 11 14 15 14 14 13 14 14 13 11 10 11 10 9 8 7 7 7 6 7 9 10 10 9 8 6 6 7 7 8 9 10 11 12 12 14 15 16 17 17 17 17 17 17 16 17 18 19 19 19 20
11 10 9 9 10 10 10 10 10 10 11 10 10 11 12 13 12 11 12 13 12 11 9 8 8 7 5 6 9 10 10 11 11 10 10 11 11 12 12 13 13 12 11 10 8 8 8 6 5 5 6 6 7 7 8 7 8 8 8 7 7 8 8 9 9 10 9 10 12 14 15 15 15 16 16 16 17 16 16 16 17 18 18 18 19
11 10 9 9 10 10 10 10 10 10 10 8 8 9 10 11 11 10 9 9 10 9 8 7 6 6 5 7 11 13 13 14 13 13 12 13 13 12 13 13 12 11 12 11 9 8 10 9 8 8 9 9 9 9 9 9 9 9 9 8 8 8 8 8 9 9 8 10 13 14 14 14 14 15 16 16 16 16 16 16 17 17 17 17 18
10 10 10 9 10 10 10 10 11 10 10 10 9 9 9 10 11 10 9 10 12 12 11 8 6 5 5 7 11 12 11 12 14 15 16 17 17 16 16 15 13 12 12 12 10 10 10 10 10 11 11 10 10 10 10 10 9 9 9 9 8 7 7 7 8 8 9 11 13 13 13 13 14 15 15 15 16 17 16 16 16 16 16 16 17
9 10 9 9 11 11 10 11 11 10 9 9 10 9 8 9 11 11 12 14 14 14 13 11 9 9 7 5 8 10 8 8 10 12 15 18 19 18 17 16 15 14 12 10 10 10 10 11 11 11 10 10 10 10 9 8 7 7 7 8 7 6 6 7 7 9 11 12 12 12 12 12 13 14 14 15 16 17 16 16 16 16 16 16 17
9 9 8 9 11 11 10 10 11 10 9 9 9 9 8 8 8 9 11 12 13 12 11 10 11 14 12 7 7 9 8 7 8 10 13 16 17 16 15 13 12 11 9 8 8 9 9 9 9 8 9 10 10 8 7 7 6 6 6 7 6 6 6 6 7 9 11 11 11 11 11 12 12 13 14 15 16 16 16 16 16 16 16 16 17
8 9 9 10 11 10 8 8 9 10 11 10 10 9 9 9 8 7 7 7 7 8 9 9 11 13 14 11 8 8 8 8 9 10 12 14 14 13 12 10 9 9 8 8 8 8 8 8 8 8 8 8 8 7 6 6 6 5 5 6 6 6 6 6 8 9 9 9 10 11 11 11 12 13 14 14 15 15 16 16 16 17 16 16 17
7 9 9 10 10 8 8 8 8 9 10 10 10 10 10 9 9 9 10 8 7 6 6 8 10 10 10 10 9 8 8 10 11 12 12 12 12 11 10 9 9 8 8 6 7 8 8 9 9 8 8 7 6 5 5 5 5 5 5 5 6 6 7 7 9 9 9 9 10 10 10 11 12 13 14 14 15 15 15 15 16 17 16 16 18
8 9 9 9 8 7 7 7 7 8 9 9 9 9 10 9 9 10 10 10 9 8 6 6 7 8 9 9 10 10 11 12 12 12 12 12 11 11 10 9 7 7 6 6 7 8 9 9 9 9 8 7 5 5 4 4 4 4 4 5 6 7 8 9 8 8 9 10 10 10 11 11 12 13 13 14 15 15 15 15 16 16 17 17 18
9 10 10 8 6 6 6 6 6 7 8 8 8 8 9 9 9 9 9 9 9 9 8 8 8 9 10 11 12 13 13 13 13 12 11 11 11 11 9 7 7 6 7 7 7 8 8 8 7 7 7 6 5 4 4 4 3 3 4 5 7 8 8 8 8 7 8 10 10 10 11 11 11 12 13 14 15 15 15 16 16 16 17 17 18
9 9 8 6 4 4 5 6 7 8 8 7 8 8 9 9 9 9 9 9 9 9 9 10 11 11 11 12 14 14 14 14 13 12 12 11 11 10 7 7 6 6 6 7 7 7 7 7 6 5 5 5 4 4 4 3 3 3 4 4 6 7 8 8 8 8 8 9 9 10 10 11 11 12 13 14 15 15 15 16 16 16 17 18 18
8 7 5 4 4 4 6 7 8 9 9 8 8 9 9 9 9 9 9 9 10 9 10 11 12 11 11 13 14 15 15 15 13 12 12 12 11 10 8 7 6 6 6 6 6 6 6 6 5 4 4 4 4 4 4 3 3 4 5 5 6 7 8 9 8 7 8 9 9 9 10 11 11 12 13 14 14 15 15 16 16 17 17 17 17
7 4 3 5 6 6 7 8 9 10 10 9 9 10 10 9 9 9 9 9 10 10 10 11 11 10 11 14 15 14 14 14 12 11 12 12 11 9 7 6 5 6 6 5 5 6 5 4 4 5 5 5 4 3 3 4 4 5 6 7 8 8 7 7 7 6 7 8 9 9 10 10 11 12 13 13 14 15 16 16 16 17 17 17 17
7 4 4 7 9 8 8 10 10 10 10 10 10 10 10 9 9 9 9 10 10 10 10 11 11 10 12 15 16 15 14 12 11 10 10 10 10 8 6 5 5 5 5 5 5 5 5 7 7 7 7 7 6 5 4 4 6 6 6 7 7 7 7 7 6 7 7 8 8 9 9 10 11 12 13 13 14 15 16 16 16 16 16 17 17
7 7 8 9 9 9 10 10 10 10 11 11 10 10 10 10 10 9 9 10 10 10 10 11 10 10 12 16 18 17 14 11 10 9 9 8 8 7 5 5 5 4 5 5 4 4 5 8 8 8 8 8 7 6 5 5 6 7 7 7 7 6 7 7 6 6 7 7 8 9 9 10 11 12 13 14 15 15 15 15 15 16 16 16 16
7 8 10 11 10 10 10 11 10 11 11 11 11 10 10 10 9 9 8 8 8 7 8 8 7 8 12 16 19 18 13 10 9 9 8 7 6 5 5 4 4 4 3 4 4 4 5 7 8 8 8 8 8 7 6 5 6 6 6 6 6 6 6 6 5 6 7 7 8 9 9 10 11 12 12 14 14 14 15 15 15 16 16 16 16
8 9 10 11 11 10 10 10 10 10 10 9 9 9 9 9 9 8 8 7 7 7 7 7 7 8 11 15 19 17 11 8 8 9 8 7 6 5 5 4 5 4 3 3 3 4 5 7 7 8 8 8 8 7 6 6 6 6 5 5 6 5 6 6 6 6 7 7 8 9 9 10 11 11 12 13 14 14 15 15 15 15 16 16 16
10 11 11 11 10 9 9 9 9 9 8 8 8 8 8 8 8 7 7 7 7 7 7 7 7 8 10 14 17 15 11 9 9 9 8 7 6 6 6 6 5 4 3 3 3 3 5 6 7 8 8 8 7 6 6 5 5 5 5 5 5 5 6 6 6 6 7 7 8 9 9 10 11 11 11 13 14 14 14 15 15 15 15 15 15
12 12 11 10 10 9 9 9 9 9 9 9 9 9 8 8 7 6 6 5 5 6 6 6 7 8 10 12 14 13 11 9 9 8 7 7 7 6 6 6 5 4 3 3 2 3 4 6 7 7 8 7 6 5 5 4 4 4 4 4 5 5 5 5 5 6 7 7 8 9 9 10 11 11 11 13 14 14 14 14 15 15 15 15 15
10 10 10 10 9 9 8 8 9 9 9 8 8 8 8 7 7 6 6 5 5 6 5 5 6 8 9 11 13 13 11 9 9 8 8 8 8 7 7 7 6 5 4 3 3 4 5 6 7 7 7 7 6 5 4 4 4 3 4 4 4 4 5 5 6 6 7 7 8 9 9 10 11 11 11 13 13 13 14 14 14 15 15 15 15
9 9 9 9 8 8 8 8 8 7 7 6 6 6 6 6 5 5 4 3 3 4 4 4 5 6 7 9 12 13 12 12 11 11 10 10 10 9 8 8 7 6 5 4 5 5 6 6 7 7 7 6 5 5 4 4 3 3 3 3 2 3 5 5 5 6 7 7 8 8 9 10 11 11 11 12 12 13 13 13 14 14 14 14 14
8 8 8 9 9 8 8 8 8 7 7 6 6 6 6 5 4 4 4 3 3 3 4 4 4 5 6 8 10 11 13 14 13 12 11 11 10 10 9 8 8 7 6 6 7 7 7 7 7 7 7 6 5 5 4 4 4 3 2 2 2 3 5 5 5 6 7 7 8 8 9 10 10 10 11 11 11 12 13 13 13 14 14 13 14
7 7 8 8 8 8 8 8 8 8 7 7 6 6 5 5 4 3 4 4 4 4 4 5 5 6 6 7 9 10 11 12 13 13 12 12 11 11 10 10 9 9 8 7 8 8 7 7 7 8 7 6 5 5 5 5 4 3 3 3 3 4 6 7 7 7 6 7 7 8 9 9 10 10 11 11 10 11 12 12 12 13 13 13 13
7 7 8 7 7 7 7 8 8 7 7 6 6 5 5 5 4 4 4 4 4 5 5 6 7 8 8 9 9 10 11 12 13 13 13 12 11 11 11 11 11 10 9 8 8 8 8 8 8 8 8 7 6 6 6 6 5 4 4 4 4 5 7 8 10 9 6 6 6 8 8 9 9 9 10 10 10 10 11 11 12 12 12 12 13
8 8 8 8 8 8 8 7 7 7 7 6 6 5 5 5 4 4 4 4 5 6 7 8 9 10 10 10 9 10 11 12 13 13 13 12 11 12 13 12 12 12 10 9 9 9 8 9 9 9 9 8 7 7 7 6 7 8 7 5 4 5 7 9 11 11 8 6 6 7 8 8 8 9 9 9 9 10 10 11 11 11 11 11 11
Wind_Direction
205 205 205 204 201 199 200 200 202 201 200 203 208 208 205 206 206 200 194 197 196 192 191 195 200 201 198 194 195 198 200 206 209 203 208 220 220 220 225 230 240 247 251 257 260 262 264 263 264 266 268 268 268 269 270 270 269 266 263 261 261 260 257 257 261 272 284 290 292 291 291 292 289 285 286 287 286 286 282 275 275 276 277 278 279
205 205 203 201 200 200 199 199 200 200 200 202 204 205 210 213 208 199 195 197 194 189 189 195 202 204 202 200 197 197 200 206 210 207 208 217 219 217 222 229 239 247 252 257 262 264 265 263 264 266 266 265 265 267 268 268 269 268 265 263 265 265 259 255 257 265 276 283 288 291 294 293 290 289 289 288 286 285 282 279 279 278 278 280 281
205 203 201 199 199 199 198 197 199 199 200 200 201 206 210 207 205 203 196 193 195 197 197 199 205 207 206 205 203 201 202 204 209 213 213 214 215 216 220 227 238 246 252 258 261 264 265 262 262 262 260 260 261 264 267 268 270 269 268 267 267 269 265 258 257 263 270 274 278 285 291 293 292 291 289 287 285 282 281 282 283 282 283 283 283
205 202 200 200 198 197 196 197 199 200 201 201 202 205 203 198 204 205 195 192 201 204 202 204 208 207 206 209 209 207 203 199 202 212 220 219 216 217 221 228 238 246 253 260 261 261 261 259 258 257 255 256 257 260 265 267 269 269 269 271 270 271 270 265 261 260 265 270 269 270 278 283 286 287 286 286 284 282 283 285 283 283 285 285 285
204 201 201 201 197 195 197 198 199 201 203 202 200 201 200 196 199 199 192 192 199 201 202 205 207 208 210 212 213 210 205 199 197 205 220 226 222 222 225 231 239 246 253 259 258 256 254 253 253 252 252 253 254 260 267 270 272 274 275 277 275 274 273 271 269 263 263 269 270 272 277 277 278 280 281 282 283 284 284 284 282 283 284 285 285
203 202 201 201 197 196 197 199 202 204 204 201 197 196 198 195 192 193 192 192 197 200 203 205 206 209 211 211 212 211 207 202 200 204 216 228 231 233 234 234 240 247 253 257 254 250 248 247 248 249 248 251 255 263 271 275 276 279 282 284 282 279 276 273 271 265 262 267 271 274 277 276 277 277 275 278 283 285 286 286 284 284 285 286 285
202 202 203 202 198 197 199 201 204 205 202 200 195 195 199 195 189 189 191 193 197 199 200 204 207 211 211 207 207 210 208 207 205 208 219 233 239 240 238 237 242 249 254 255 250 246 246 246 249 250 248 251 258 265 272 275 277 280 283 285 283 280 277 274 273 270 267 269 272 274 275 277 278 276 276 281 280 276 281 287 290 290 290 288 287
200 202 204 204 200 199 201 203 204 204 201 198 197 198 197 188 181 188 195 198 198 197 200 205 207 210 211 206 203 206 208 210 210 212 222 234 238 238 238 239 245 252 254 252 247 245 247 249 251 252 252 255 258 262 269 272 275 279 282 283 282 279 279 279 280 278 274 272 276 280 279 279 279 277 279 283 279 275 281 290 294 294 293 291 289
200 202 203 205 204 201 202 203 205 208 205 198 196 196 185 174 182 203 209 205 201 200 204 207 206 208 211 208 205 206 208 212 215 217 223 229 232 237 242 243 245 250 251 247 244 244 246 250 253 255 256 257 257 260 267 270 271 274 277 280 280 279 280 283 284 284 282 279 282 285 282 280 279 277 280 285 287 289 293 293 292 293 294 293 291
199 202 204 206 205 204 205 205 207 210 208 201 197 191 180 181 198 216 216 208 204 205 207 208 207 206 207 208 208 209 210 213 217 221 226 230 231 238 245 244 244 246 245 243 243 243 244 248 253 257 259 260 262 264 269 270 269 271 274 277 278 277 280 284 285 286 287 288 290 290 287 285 284 282 286 292 295 296 297 294 291 294 297 295 293
199 203 206 206 205 208 210 208 206 207 205 203 199 191 187 193 205 217 217 209 207 208 208 208 204 198 200 207 213 215 215 216 219 225 233 239 242 245 247 245 244 245 243 242 242 243 246 249 255 261 264 264 265 268 270 270 271 276 280 279 276 272 274 278 281 284 287 290 291 291 289 288 288 288 292 294 295 298 301 297 294 297 298 296 295
200 204 207 206 203 209 213 208 205 205 204 205 203 195 193 199 206 214 215 210 208 207 207 205 198 191 197 208 215 218 220 220 223 231 238 244 249 253 251 245 245 246 242 241 242 243 249 253 258 267 269 264 262 264 266 269 276 283 284 280 274 269 269 271 273 276 281 286 287 287 287 288 289 291 294 297 299 302 302 297 296 298 297 295 294
201 203 206 204 200 206 211 208 206 207 207 207 204 195 192 199 206 210 210 208 208 206 202 200 196 195 200 208 214 219 222 225 231 238 242 246 251 255 251 241 242 246 242 241 242 244 251 256 260 267 267 262 262 262 261 268 276 280 280 279 279 276 276 276 273 271 275 279 281 282 285 287 290 293 298 301 302 302 301 300 299 298 296 294 292
199 202 203 202 199 200 203 204 207 207 204 204 201 195 194 199 205 207 205 206 206 201 194 190 192 199 207 213 219 223 225 231 238 242 245 248 250 253 249 239 239 245 243 244 247 249 252 255 258 263 263 262 265 263 264 272 277 277 276 277 279 279 280 280 275 270 268 268 271 277 283 286 288 292 297 301 300 300 300 299 297 294 292 290 288
195 199 200 198 199 196 194 201 207 200 196 200 201 201 201 199 201 205 206 205 200 191 186 186 190 201 210 215 222 226 227 232 239 243 246 249 249 253 251 241 238 243 245 248 252 253 253 252 252 259 264 268 268 263 265 274 278 279 278 278 280 282 282 279 273 267 265 265 270 278 284 286 288 292 296 298 297 295 293 290 286 284 284 283 284
191 196 197 193 194 192 190 199 203 194 196 201 202 204 206 200 197 201 203 199 193 185 186 190 193 202 210 216 223 228 230 233 236 241 248 250 249 252 251 241 238 245 248 249 251 252 254 256 260 269 272 273 270 267 269 274 275 277 279 279 282 283 283 282 278 275 276 277 279 283 285 286 287 289 292 294 294 292 288 284 281 278 278 282 287
188 191 191 187 187 187 190 200 198 190 196 202 201 204 206 200 197 200 200 196 192 191 193 198 204 210 214 218 224 231 234 234 234 242 250 250 247 247 242 233 236 243 242 242 243 241 249 263 275 282 280 274 269 268 273 278 276 276 277 279 282 283 283 284 284 285 288 290 291 293 294 293 292 292 294 296 297 293 280 275 280 283 284 288 293
183 184 183 180 179 181 191 204 200 190 195 202 203 206 205 199 196 198 196 192 191 194 197 202 212 219 221 223 226 233 235 233 235 246 253 250 245 239 230 227 233 235 225 218 226 235 253 269 276 277 272 268 267 267 272 276 274 273 274 278 280 282 284 286 286 287 291 294 298 300 299 298 297 297 296 295 296 288 268 265 282 293 292 293 295
175 175 174 171 172 177 189 202 202 196 198 202 205 207 205 201 197 194 190 186 186 194 199 205 215 223 228 229 230 232 234 234 238 246 251 248 241 230 222 223 221 206 192 202 229 251 267 275 278 272 262 259 262 265 270 272 269 267 271 276 278 278 284 289 289 289 289 291 295 297 297 296 294 293 292 291 290 281 265 267 284 293 293 294 296
163 162 161 163 167 172 183 196 202 200 198 199 204 207 204 199 195 190 188 189 194 200 203 210 219 225 230 231 228 226 229 235 242 247 247 245 236 220 213 211 195 185 196 214 229 248 260 266 268 262 254 253 259 265 268 269 267 266 267 272 275 275 281 287 289 290 290 291 294 294 293 292 290 290 291 289 286 280 273 277 287 291 293 295 295
150 149 150 157 165 170 179 190 196 199 197 193 196 202 203 197 190 186 188 194 199 203 205 212 220 223 224 224 222 223 229 238 247 248 244 241 228 210 202 199 194 195 203 213 223 238 252 255 252 247 247 254 261 264 267 269 270 267 261 261 264 266 273 282 286 288 291 292 293 293 292 293 293 292 291 291 289 287 287 290 293 293 293 294 294
141 142 146 154 164 172 179 183 187 193 194 186 186 193 199 197 193 192 194 195 196 201 207 211 214 214 215 216 220 228 238 241 241 240 241 238 225 209 200 199 203 205 208 220 234 247 254 253 249 247 251 259 264 265 267 268 267 262 256 257 262 268 278 286 288 289 291 292 293 294 294 296 296 294 293 294 296 297 297 297 296 294 291 288 288
138 140 144 152 161 170 174 177 181 186 190 190 189 190 191 193 195 197 199 198 199 204 208 205 202 205 206 210 221 231 237 237 232 232 238 235 218 206 201 202 210 213 212 220 234 246 249 246 248 252 257 264 267 265 262 258 255 257 261 268 282 292 295 292 288 290 292 292 293 295 295 295 294 295 298 300 301 302 301 298 296 294 290 288 285
138 139 144 151 159 164 167 173 181 183 188 195 194 190 188 190 191 191 195 201 202 203 202 197 196 202 201 199 211 222 226 229 231 232 233 223 207 200 200 204 212 211 207 216 233 242 243 241 242 249 258 264 262 256 248 243 247 261 273 284 292 295 292 285 286 289 289 291 294 294 293 294 294 297 300 302 302 302 299 297 296 295 293 291 288
135 136 141 148 155 159 162 172 183 188 191 195 194 191 189 190 189 187 192 201 200 195 193 191 190 191 190 188 197 213 223 226 225 223 216 203 196 197 200 206 210 204 202 216 237 238 240 243 245 252 260 258 251 253 255 251 259 274 281 286 286 280 274 276 283 286 287 290 293 293 292 295 297 300 301 302 302 301 300 300 301 300 298 296 293
130 133 138 143 151 158 162 173 185 192 194 194 194 193 191 190 191 193 195 199 197 191 186 185 184 184 187 187 188 199 215 218 212 204 198 194 196 201 204 207 208 203 202 218 235 238 243 248 250 253 253 241 233 243 252 257 269 280 284 281 268 259 262 271 278 283 286 290 292 293 296 300 302 302 302 301 301 302 304 305 305 305 305 304 302
128 132 137 143 150 159 166 173 184 192 193 194 195 197 196 194 195 199 201 200 196 190 184 182 187 193 195 186 178 181 200 212 212 201 190 190 196 202 204 205 205 202 205 217 231 237 244 253 256 248 241 240 236 233 240 254 266 272 268 254 247 252 261 269 273 276 281 286 292 297 300 303 303 303 304 305 304 305 307 308 308 308 308 308 306
129 132 137 142 150 163 171 174 181 188 190 192 194 194 196 200 202 206 209 204 196 190 188 191 200 211 213 182 170 178 194 205 208 203 193 188 191 194 196 196 196 202 210 215 219 222 227 246 269 252 239 250 249 234 233 248 262 267 260 248 247 253 259 266 271 270 274 284 294 299 302 304 305 306 307 308 307 309 312 311 308 307 308 309 309
131 132 137 141 151 167 173 173 181 184 172 166 174 178 183 196 204 207 206 200 195 194 196 202 210 224 223 187 177 188 200 203 202 199 195 194 193 190 193 195 195 204 216 216 216 223 228 241 258 253 247 254 253 243 240 249 260 266 263 259 260 259 260 270 277 278 285 294 298 302 305 306 307 308 308 309 310 312 314 312 309 307 307 308 310
133 135 144 151 156 169 176 175 183 182 160 151 162 168 169 185 197 198 194 196 202 206 211 216 217 213 205 185 184 191 194 195 199 201 202 203 200 194 196 200 201 210 221 221 222 230 235 244 256 258 257 259 257 253 257 264 267 265 260 256 255 258 267 279 287 295 304 303 300 302 305 306 308 309 310 312 313 313 314 313 310 309 308 310 313
139 145 157 154 150 164 175 169 169 168 153 153 168 168 164 181 198 205 206 207 211 216 221 222 212 199 189 177 187 193 186 182 195 203 205 205 203 200 201 205 208 218 224 218 218 227 237 249 262 264 259 257 255 255 262 267 262 256 259 258 254 258 273 286 299 308 308 303 300 303 305 304 307 309 311 313 313 313 316 316 315 315 312 313 317
147 150 154 142 141 158 169 159 157 160 160 169 177 171 166 176 190 204 214 215 216 218 216 210 200 199 198 187 185 201 208 206 201 195 193 196 199 203 207 209 212 217 212 201 211 232 241 249 258 256 249 253 256 254 257 259 253 252 260 266 269 277 287 300 311 310 304 302 304 305 303 304 308 309 309 312 312 314 318 318 319 321 318 317 322
150 145 144 141 146 159 160 152 158 167 170 176 181 180 184 185 178 172 178 187 194 197 196 194 194 198 204 206 208 218 221 209 194 184 181 187 193 197 200 200 196 193 187 194 220 239 242 248 255 251 247 254 258 251 249 254 259 263 266 273 284 292 298 307 308 302 298 301 301 301 302 306 310 309 310 313 314 315 318 320 320 323 322 322 325
136 130 134 141 149 158 159 160 170 175 176 179 182 185 191 190 178 165 157 154 155 156 167 185 191 195 203 211 215 217 204 188 184 182 178 179 184 185 182 178 175 177 185 208 241 250 248 252 258 256 254 258 257 252 250 252 258 269 276 282 293 298 302 306 303 300 304 304 300 301 306 309 310 310 312 315 317 317 319 321 322 325 326 325 325
128 125 130 136 144 155 162 169 175 175 175 180 183 185 183 177 169 166 162 158 156 145 132 150 178 190 196 194 190 186 180 176 177 176 171 170 171 167 162 163 170 180 196 219 244 256 257 257 257 258 258 256 249 249 254 255 261 276 285 292 300 303 304 304 302 303 308 304 300 304 308 307 309 312 313 315 318 318 320 322 324 325 325 325 325
138 136 139 142 147 153 158 168 177 177 176 180 182 181 175 167 162 160 157 155 154 143 129 132 151 166 175 176 173 171 169 168 167 163 160 162 162 159 165 184 195 198 208 223 236 248 254 255 256 256 253 247 242 244 252 258 269 283 292 300 305 304 302 303 305 306 305 301 299 304 307 306 311 315 316 317 319 319 321 324 324 323 324 325 322
143 141 144 151 164 172 173 174 174 171 171 174 177 174 169 165 164 161 160 163 164 154 143 143 150 155 161 168 170 166 161 158 156 153 152 155 158 169 201 233 233 221 227 236 243 252 257 255 252 246 240 239 240 245 253 261 270 278 285 291 295 296 297 299 300 299 298 298 300 304 308 310 314 318 319 319 320 320 323 325 323 322 324 322 319
134 128 136 156 174 187 184 172 163 163 166 170 173 173 169 168 170 171 171 174 175 168 157 156 161 165 164 165 167 164 157 152 151 152 157 163 169 186 218 243 243 239 244 245 246 254 258 254 251 252 248 243 241 245 257 269 273 280 289 288 284 283 285 286 286 283 286 294 301 307 311 313 318 322 321 319 319 321 324 325 324 323 325 324 323
142 133 157 173 172 175 173 164 159 163 169 171 171 171 171 171 173 174 175 177 179 177 170 168 176 179 170 163 163 163 160 159 162 166 171 177 184 194 212 227 231 239 251 254 250 254 257 255 262 271 269 262 256 252 261 277 283 284 288 288 283 279 276 279 284 285 290 299 306 310 314 317 321 324 323 320 322 324 324 324 324 325 325 325 326
162 160 171 172 168 165 161 158 159 162 168 170 169 168 170 172 174 177 179 181 184 184 177 177 185 185 173 166 168 170 172 179 185 184 182 184 188 194 210 230 237 241 252 257 253 257 268 272 274 273 269 267 267 263 264 279 287 285 282 279 277 276 276 279 286 293 299 306 309 310 315 321 324 325 324 323 323 323 321 321 325 326 324 325 326
164 158 156 159 161 159 158 160 161 161 162 162 159 158 162 167 175 184 186 183 183 183 180 182 188 183 177 178 180 181 188 198 196 190 191 195 198 203 213 230 240 242 250 258 254 255 275 279 274 269 265 263 266 269 271 280 286 284 278 272 268 271 276 278 285 296 302 305 309 313 319 325 325 324 323 322 321 320 321 323 326 328 327 327 329
165 161 157 157 162 166 165 162 158 155 157 158 155 154 157 164 176 186 186 180 180 180 178 184 183 176 183 191 189 187 198 210 198 191 197 201 205 214 217 221 237 239 241 257 261 260 273 275 267 263 263 263 266 272 277 283 286 280 272 269 266 269 278 283 289 299 302 303 311 318 321 323 323 321 320 321 321 322 325 327 328 329 330 330 331
166 163 161 163 166 166 160 156 155 157 160 161 159 160 164 170 180 186 183 181 186 182 181 188 181 167 181 194 191 188 200 213 197 194 204 205 207 222 229 238 255 253 238 248 260 262 271 270 260 257 261 261 264 274 280 283 285 276 268 271 272 272 282 290 293 301 307 309 316 322 322 322 324 322 320 324 325 324 325 328 330 332 333 332 333
163 160 159 160 158 152 147 148 152 152 150 148 152 163 172 176 182 186 184 184 190 190 194 202 189 165 169 185 189 190 201 207 194 191 200 205 213 234 250 257 260 248 235 245 247 248 268 270 255 251 258 260 262 272 276 274 275 269 266 274 275 273 281 291 295 306 315 315 317 322 323 323 324 323 323 326 327 325 326 330 332 333 334 334 335
162 159 155 150 144 140 138 139 140 140 144 150 157 166 171 170 172 179 182 183 191 203 214 219 205 179 170 179 189 195 200 201 194 188 191 202 220 239 251 253 245 230 229 242 225 226 264 269 252 247 256 258 259 265 266 259 260 263 267 274 276 276 285 296 300 307 314 316 318 321 323 323 324 324 326 327 326 325 328 331 331 332 334 335 336
153 150 147 141 136 135 137 140 144 149 157 166 170 170 172 172 174 181 186 186 195 208 216 215 210 200 189 188 194 196 194 194 197 197 199 214 230 238 238 239 236 229 229 228 209 220 255 263 252 248 253 255 254 258 257 251 250 254 259 266 274 283 292 299 303 307 311 315 317 319 321 322 321 322 324 324 323 325 328 329 330 333 334 335 337
139 142 144 141 140 142 144 147 153 158 164 172 174 169 167 169 174 182 186 186 200 216 218 214 213 212 204 198 198 198 196 198 205 210 213 222 232 235 233 233 232 228 222 214 209 220 239 247 245 245 246 245 244 247 249 247 243 244 251 258 270 285 286 289 301 309 311 313 316 317 317 318 317 319 324 324 323 327 329 328 330 334 333 334 339
135 142 145 145 149 155 153 151 154 156 157 160 161 156 153 157 167 176 175 172 190 211 220 220 219 220 217 212 211 213 212 209 209 213 216 219 222 227 229 227 225 223 219 213 212 220 229 232 232 230 228 229 235 239 239 236 233 233 237 235 250 290 304 308 309 301 294 300 310 311 308 311 314 316 320 322 321 324 329 331 333 334 333 333 340
137 145 148 151 156 158 156 156 158 157 153 151 150 149 151 157 165 176 180 187 203 217 227 231 229 230 231 227 224 224 220 211 208 213 217 216 217 223 225 217 211 212 216 214 214 217 221 220 217 214 214 221 230 231 226 226 227 223 216 221 257 316 344 348 338 317 295 294 306 307 303 308 313 314 316 319 319 321 328 333 333 332 332 334 341
145 150 150 152 154 152 155 161 163 159 160 165 164 160 162 168 177 188 200 214 225 230 238 244 243 242 242 238 232 229 223 215 213 220 223 220 218 221 220 210 203 204 211 215 213 211 215 219 218 216 215 220 226 227 224 224 221 211 210 229 274 327 349 351 346 339 321 295 296 301 301 305 311 312 314 319 321 324 329 333 332 332 333 336 341
152 156 155 155 155 154 159 166 164 161 167 176 175 173 179 189 197 203 216 239 250 250 253 255 254 253 254 251 245 239 233 227 225 227 228 224 219 217 217 211 203 201 206 211 209 209 218 227 226 219 217 219 224 226 226 222 217 218 227 246 286 327 339 341 343 342 328 294 283 294 298 300 306 310 313 320 327 327 327 329 330 331 335 340 343